Weather History for Yellowstone, WY

Change the Weather History Date:

Sunday, November 18, 2012

  Actual Average Record
Temperature  
Mean Temperature 31 °F 21 °F  
Max Temperature 34 °F 32 °F 51 °F (2008)
Min Temperature 28 °F 11 °F 3 °F (2000)
Degree Days  
Heating Degree Days 34 44  
Month to date heating degree days 714  
Since 1 July heating degree days 2762  
Cooling Degree Days 0 0  
Month to date cooling degree days 0  
Year to date cooling degree days 0  
Moisture  
Dew Point 28 °F    
Average Humidity 88    
Maximum Humidity 96    
Minimum Humidity 79    
Precipitation  
Precipitation 0.36 in 0.07 in 0.36 in (2012)
Month to date precipitation 1.26  
Year to date precipitation 17.98  
Sea Level Pressure  
Sea Level Pressure 29.99 in    
Wind  
Wind Speed 2 mph (West)    
Max Wind Speed 6 mph    
Max Gust Speed -    
T = Trace of Precipitation, MM = Missing Value Source: NWS Daily Summary

Daily Weather History Graph

Daily Weather History Graph

Search for Another Location

Airport:

Trip Planner

Search our weather history database for the weather conditions in past years. The results will help you decide how hot, cold, wet, or windy it might be!

Date:

Astronomy

Nov. 18, 2012 Rise Set
Actual Time 7:22 AM MST 4:50 PM MST
Civil Twilight 6:51 AM MST 5:22 PM MST
Nautical Twilight 6:15 AM MST 5:58 PM MST
Astronomical Twilight 5:40 AM MST 6:32 PM MST
Moon 11:49 AM MST (11/18) 10:17 PM MST (11/18)
Length of Visible Light 10h 31m
Length of Day
9h 27m
Waxing Crescent, 31% of the Moon is Illuminated
Nov 18
Waxing Crescent
Nov 20
First Quarter
Nov 28
Full
Dec 6
Last Quarter
Dec 13
New

Hourly Weather History & Observations

Time (MST) Temp. Windchill Dew Point Humidity Pressure Visibility Wind Dir Wind Speed Gust Speed Precip Events Conditions
12:56 AM 32.0 °F 28.7 °F 28.9 °F 88% 29.93 in - West 3.5 mph - N/A   Unknown
1:56 AM 32.0 °F - 30.0 °F 92% 29.91 in - Calm Calm - 0.04 in   Unknown
2:56 AM 32.0 °F - 30.0 °F 92% 29.91 in - Calm Calm - 0.04 in   Unknown
3:56 AM 32.0 °F - 30.9 °F 96% 29.88 in - Calm Calm - 0.03 in   Unknown
4:56 AM 33.1 °F - 30.9 °F 92% 29.88 in - Calm Calm - 0.05 in   Unknown
5:56 AM 33.1 °F - 30.9 °F 92% 29.87 in - Calm Calm - 0.02 in   Unknown
6:56 AM 32.0 °F 26.4 °F 30.9 °F 96% 29.90 in - Variable 5.8 mph - 0.07 in   Unknown
7:56 AM 30.9 °F 25.2 °F 28.9 °F 92% 29.93 in - Variable 5.8 mph - 0.02 in   Unknown
8:56 AM 32.0 °F 28.7 °F 30.0 °F 92% 29.94 in - Variable 3.5 mph - N/A   Unknown
9:56 AM 32.0 °F - 30.0 °F 92% 29.94 in - Calm Calm - 0.03 in   Unknown
10:56 AM 33.1 °F 28.7 °F 30.0 °F 89% 29.97 in - Variable 4.6 mph - 0.02 in   Unknown
11:56 AM 34.0 °F 29.8 °F 30.0 °F 85% 29.96 in - Variable 4.6 mph - 0.02 in   Unknown
12:56 PM 33.1 °F 30.0 °F 28.9 °F 85% 29.96 in - Variable 3.5 mph - 0.01 in   Unknown
1:56 PM 32.0 °F 27.5 °F 28.0 °F 85% 30.01 in - Variable 4.6 mph - N/A   Unknown
2:56 PM 32.0 °F - 27.0 °F 82% 30.01 in - Calm Calm - N/A   Unknown
3:56 PM 30.0 °F 24.1 °F 25.0 °F 82% 30.05 in - Variable 5.8 mph - N/A   Unknown
4:56 PM 30.0 °F - 25.0 °F 82% 30.06 in - Calm Calm - N/A   Unknown
5:56 PM 30.0 °F 25.2 °F 24.1 °F 79% 30.06 in - Variable 4.6 mph - N/A   Unknown
6:56 PM 28.9 °F 25.2 °F 25.0 °F 85% 30.08 in - Variable 3.5 mph - N/A   Unknown
7:56 PM 28.0 °F 22.8 °F 24.1 °F 85% 30.09 in - Variable 4.6 mph - N/A   Unknown
8:56 PM 28.0 °F - 25.0 °F 88% 30.11 in - Calm Calm - 0.01 in   Unknown
9:56 PM 28.0 °F - 24.1 °F 85% 30.12 in - Calm Calm - N/A   Unknown
10:56 PM 28.0 °F - 24.1 °F 85% 30.12 in - Calm Calm - N/A   Unknown
11:56 PM 28.0 °F 24.2 °F 23.0 °F 81% 30.14 in - Variable 3.5 mph - N/A   Unknown